CALSPHERE 1 1 00900U 64063C 25312.10355125 .00001028 00000+0 10434-2 0 9997 2 00900 90.2204 66.6508 0024687 238.2082 176.1787 13.76293496 41014 CALSPHERE 2 1 00902U 64063E 25312.33427052 .00000091 00000+0 12368-3 0 9991 2 00902 90.2346 70.5785 0019737 144.0019 274.8600 13.52878237826408 LCS 1 1 01361U 65034C 25312.33325332 .00000015 00000+0 91019-3 0 9994 2 01361 32.1457 341.4117 0013371 59.8725 300.3097 9.89309159188010 TEMPSAT 1 1 01512U 65065E 25312.26259727 .00000082 00000+0 14503-3 0 9999 2 01512 89.9901 212.6988 0070450 147.7404 334.0858 13.33577772930600 CALSPHERE 4A 1 01520U 65065H 25312.47701448 .00000126 00000+0 22510-3 0 9999 2 01520 89.9080 124.5425 0069831 7.9261 45.4616 13.36229661933234 OPS 5712 (P/L 160) 1 02826U 67053A 25312.29478635 .00013561 00000+0 20993-2 0 9996 2 02826 69.9187 218.0596 0004780 303.2418 56.8269 14.73331467 33642 OPS 5712 (P/L 153) 1 02874U 67053H 25312.20562574 .00000113 00000+0 11964-3 0 9994 2 02874 69.9735 228.9444 0005088 141.3874 218.7597 13.96781343975920 RIGIDSPHERE 2 (LCS 4) 1 05398U 71067E 25312.49000910 .00001411 00000+0 45707-3 0 9994 2 05398 87.6237 40.0534 0058372 243.9509 115.5673 14.37470355842172 COSMOS 2493 (SKRL-756 1) 1 39490U 13078A 25312.48783492 .00005520 00000+0 43672-3 0 9998 2 39490 82.4112 116.8569 0012425 271.0059 88.9742 15.00396546644842 COSMOS 2494 (SKRL-756 2) 1 39491U 13078B 25312.46917946 .00006048 00000+0 44792-3 0 9990 2 39491 82.4111 107.1548 0016060 232.0327 127.9448 15.02878343645633